Location: Boitzum
(52.1496°N, 9.6943°E)
Time: 20:17:01
(UTC+00:00)

Gblst 52 Del rocket - Pass Details

Date: 13 January 2026
Orbit: 805 x 1364 km, 51.5° (Epoch: 16 February)

Event Time Altitude Azimuth Distance (km) Brightness Sun altitude
Exits shadow 05:40:13 23° 276° (W) 1,658 5.1 -15.3°
Maximum altitude 05:43:39 67° 199° (SSW) 876 4.2 -14.8°
Drops below altitude 10° 05:49:12 10° 118° (ESE) 2,442 8.0 -13.9°
Sets 05:51:45 0° 116° (ESE) 3,422 9.3 -13.6°
